Location: Unspecified
(0.0000°N, 0.0000°E)
Time: 13:33:34
(UTC+00:00)

Envisat - Pass Details

Date: 27 November 2021
Orbit: 764 x 766 km, 98.2° (Epoch: 07 December)

Event Time Altitude Azimuth Distance (km) Brightness Sun altitude
Rises 03:27:14 0° 51° (NE) 3,216 6.5 -32.4°
Reaches altitude 10° 03:31:12 10° 82° (E) 2,294 6.1 -31.5°
Maximum altitude 03:32:56 12° 103° (ESE) 2,177 6.2 -31.1°
Drops below altitude 10° 03:34:41 10° 123° (ESE) 2,298 6.3 -30.7°
Sets 03:38:38 0° 154° (SSE) 3,228 6.9 -29.8°
